| time (UTC) | temp F | wind direction | speed knots | gust knots | rain 1hr in | rain 24hr in | rain mn in | humidity % | barometer mb |
| 20260510071647 | 67 | 298 | 0.0 | 0.0 | 0.00 | 0.00 | 0.00 | 84 | 1011.3 |
| 20260510071116 | 67 | 298 | 0.0 | 0.9 | 0.00 | 0.00 | 0.00 | 84 | 1011.2 |
| 20260510070650 | 67 | 298 | 0.0 | 0.9 | 0.00 | 0.00 | 0.00 | 84 | 1011.1 |
| 20260510070115 | 67 | 299 | 0.0 | 0.9 | 0.00 | 0.00 | 0.00 | 84 | 1011.2 |
| 20260510065620 | 67 | 298 | 0.0 | 0.9 | 0.00 | 0.00 | 0.00 | 84 | 1011.2 |
| 20260510065146 | 67 | 298 | 0.0 | 0.9 | 0.00 | 0.00 | 0.00 | 84 | 1011.2 |
| 20260510064623 | 68 | 299 | 0.0 | 1.7 | 0.00 | 0.00 | 0.00 | 83 | 1011.2 |
| 20260510064128 | 68 | 298 | 0.9 | 1.7 | 0.00 | 0.00 | 0.00 | 83 | 1011.3 |
| 20260510063626 | 68 | 298 | 0.0 | 0.9 | 0.00 | 0.00 | 0.00 | 83 | 1011.3 |
| 20260510063132 | 68 | 298 | 0.0 | 0.9 | 0.00 | 0.00 | 0.00 | 82 | 1011.2 |
| 20260510062630 | 68 | 298 | 0.0 | 0.0 | 0.00 | 0.00 | 0.00 | 82 | 1011.3 |
| 20260510062113 | 68 | 299 | 0.0 | 1.7 | 0.00 | 0.00 | 0.00 | 82 | 1011.3 |
| 20260510061617 | 68 | 299 | 0.9 | 1.7 | 0.00 | 0.00 | 0.00 | 81 | 1011.3 |
| 20260510061132 | 68 | 299 | 0.0 | 0.0 | 0.00 | 0.00 | 0.00 | 81 | 1011.4 |
| 20260510060619 | 68 | 207 | 0.0 | 0.0 | 0.00 | 0.00 | 0.00 | 81 | 1011.4 |
| 20260510060117 | 69 | 207 | 0.0 | 0.0 | 0.00 | 0.00 | 0.00 | 80 | 1011.4 |
| 20260510055622 | 69 | 207 | 0.0 | 0.0 | 0.00 | 0.00 | 0.00 | 80 | 1011.4 |
| 20260510055148 | 69 | 207 | 0.0 | 0.0 | 0.00 | 0.00 | 0.00 | 79 | 1011.3 |
| 20260510054626 | 69 | 207 | 0.0 | 0.0 | 0.00 | 0.00 | 0.00 | 78 | 1011.4 |
| 20260510054131 | 69 | 207 | 0.0 | 0.0 | 0.00 | 0.00 | 0.00 | 79 | 1011.3 |
| 20260510053630 | 69 | 207 | 0.0 | 0.0 | 0.00 | 0.00 | 0.00 | 79 | 1011.2 |
| 20260510053131 | 69 | 207 | 0.0 | 0.0 | 0.00 | 0.00 | 0.00 | 78 | 1011.1 |
| 20260510052629 | 70 | 207 | 0.0 | 0.0 | 0.00 | 0.00 | 0.00 | 78 | 1011.1 |
| 20260510052132 | 70 | 207 | 0.0 | 0.0 | 0.00 | 0.00 | 0.00 | 78 | 1011.1 |
| 20260510051638 | 70 | 207 | 0.0 | 0.0 | 0.00 | 0.00 | 0.00 | 78 | 1011.0 |
| 20260510051116 | 70 | 207 | 0.0 | 0.0 | 0.00 | 0.00 | 0.00 | 77 | 1011.0 |
| 20260510050614 | 70 | 207 | 0.0 | 0.0 | 0.00 | 0.00 | 0.00 | 77 | 1011.0 |
| 20260510050133 | 71 | 207 | 0.0 | 0.0 | 0.00 | 0.00 | 0.00 | 76 | 1011.1 |
| 20260510045706 | 71 | 207 | 0.0 | 0.0 | 0.00 | 0.00 | 0.00 | 76 | 1011.0 |
| 20260510045130 | 71 | 207 | 0.0 | 0.0 | 0.00 | 0.00 | 0.00 | 75 | 1010.9 |
| 20260510044703 | 71 | 207 | 0.0 | 0.0 | 0.00 | 0.00 | 0.00 | 75 | 1010.9 |
| 20260510044129 | 72 | 207 | 0.0 | 0.0 | 0.00 | 0.00 | 0.00 | 75 | 1010.9 |
| 20260510043659 | 72 | 207 | 0.0 | 0.0 | 0.00 | 0.00 | 0.00 | 75 | 1010.9 |
| 20260510043125 | 72 | 207 | 0.0 | 0.0 | 0.00 | 0.00 | 0.00 | 74 | 1010.9 |
| 20260510042638 | 72 | 207 | 0.0 | 0.0 | 0.00 | 0.00 | 0.00 | 73 | 1010.9 |
| 20260510042145 | 72 | 207 | 0.0 | 0.0 | 0.00 | 0.00 | 0.00 | 72 | 1010.9 |
| 20260510041651 | 72 | 207 | 0.0 | 0.0 | 0.00 | 0.00 | 0.00 | 71 | 1010.8 |
| 20260510041223 | 73 | 207 | 0.0 | 0.0 | 0.00 | 0.00 | 0.00 | 70 | 1010.8 |
| 20260510040632 | 73 | 207 | 0.0 | 0.0 | 0.00 | 0.00 | 0.00 | 70 | 1010.8 |
| 20260510040204 | 73 | 207 | 0.0 | 0.0 | 0.00 | 0.00 | 0.00 | 70 | 1010.7 |
| 20260510035629 | 74 | 207 | 0.0 | 0.0 | 0.00 | 0.00 | 0.00 | 69 | 1010.6 |
| 20260510035203 | 74 | 207 | 0.0 | 0.0 | 0.00 | 0.00 | 0.00 | 69 | 1010.7 |
| 20260510034730 | 74 | 207 | 0.0 | 0.0 | 0.00 | 0.00 | 0.00 | 68 | 1010.5 |
| 20260510034139 | 75 | 207 | 0.0 | 0.0 | 0.00 | 0.00 | 0.00 | 68 | 1010.5 |
| 20260510033705 | 75 | 207 | 0.0 | 0.0 | 0.00 | 0.00 | 0.00 | 67 | 1010.5 |
| 20260510033140 | 75 | 207 | 0.0 | 0.0 | 0.00 | 0.00 | 0.00 | 66 | 1010.4 |
| 20260510032644 | 75 | 207 | 0.0 | 0.0 | 0.00 | 0.00 | 0.00 | 66 | 1010.3 |
| 20260510032202 | 76 | 207 | 0.0 | 0.0 | 0.00 | 0.00 | 0.00 | 64 | 1010.4 |
| 20260510031635 | 76 | 207 | 0.0 | 0.0 | 0.00 | 0.00 | 0.00 | 63 | 1010.2 |
| 20260510031201 | 76 | 207 | 0.0 | 0.0 | 0.00 | 0.00 | 0.00 | 64 | 1010.3 |
| 20260510030636 | 77 | 207 | 0.0 | 0.0 | 0.00 | 0.00 | 0.00 | 63 | 1010.1 |
| 20260510030200 | 77 | 207 | 0.0 | 0.0 | 0.00 | 0.00 | 0.00 | 63 | 1010.1 |
| 20260510025634 | 77 | 207 | 0.0 | 0.0 | 0.00 | 0.00 | 0.00 | 61 | 1010.1 |
| 20260510025158 | 78 | 207 | 0.0 | 0.0 | 0.00 | 0.00 | 0.00 | 60 | 1010.1 |
| 20260510024632 | 78 | 207 | 0.0 | 0.0 | 0.00 | 0.00 | 0.00 | 60 | 1010.0 |
| 20260510024157 | 78 | 207 | 0.0 | 0.0 | 0.00 | 0.00 | 0.00 | 59 | 1010.0 |
| 20260510023700 | 79 | 122 | 0.0 | 0.0 | 0.00 | 0.00 | 0.00 | 58 | 1009.9 |
| 20260510023133 | 79 | 123 | 0.0 | 0.9 | 0.00 | 0.00 | 0.00 | 57 | 1009.9 |
| 20260510022659 | 79 | 122 | 0.0 | 0.9 | 0.00 | 0.00 | 0.00 | 58 | 1009.8 |
| 20260510022115 | 79 | 140 | 0.0 | 0.9 | 0.00 | 0.00 | 0.00 | 57 | 1009.8 |
| 20260510021639 | 79 | 140 | 0.0 | 3.5 | 0.00 | 0.00 | 0.00 | 56 | 1009.8 |
| 20260510021211 | 79 | 140 | 0.0 | 5.2 | 0.00 | 0.00 | 0.00 | 55 | 1009.8 |
| 20260510020636 | 80 | 98 | 1.7 | 5.2 | 0.00 | 0.00 | 0.00 | 55 | 1009.7 |
| 20260510020211 | 80 | 91 | 2.6 | 5.2 | 0.00 | 0.00 | 0.00 | 54 | 1009.6 |
| 20260510015636 | 80 | 89 | 2.6 | 5.2 | 0.00 | 0.00 | 0.00 | 54 | 1009.5 |
| 20260510015206 | 80 | 116 | 3.5 | 4.3 | 0.00 | 0.00 | 0.00 | 54 | 1009.5 |
| 20260510014631 | 81 | 115 | 1.7 | 3.5 | 0.00 | 0.00 | 0.00 | 55 | 1009.3 |
| 20260510014136 | 81 | 101 | 0.9 | 2.6 | 0.00 | 0.00 | 0.00 | 55 | 1009.1 |
| 20260510013614 | 82 | 125 | 0.9 | 4.3 | 0.00 | 0.00 | 0.00 | 55 | 1009.1 |
| 20260510013138 | 82 | 123 | 2.6 | 6.1 | 0.00 | 0.00 | 0.00 | 54 | 1009.0 |
| 20260510012146 | 83 | 89 | 1.7 | 5.2 | 0.00 | 0.00 | 0.00 | 54 | 1008.9 |
| 20260510011650 | 83 | 132 | 2.6 | 6.1 | 0.00 | 0.00 | 0.00 | 54 | 1008.9 |
| 20260510011123 | 83 | 117 | 3.5 | 6.1 | 0.00 | 0.00 | 0.00 | 53 | 1008.8 |
| 20260510010649 | 84 | 98 | 1.7 | 3.5 | 0.00 | 0.00 | 0.00 | 53 | 1008.7 |
| 20260510010221 | 84 | 107 | 1.7 | 7.0 | 0.00 | 0.00 | 0.00 | 52 | 1008.6 |
| 20260510005704 | 84 | 121 | 4.3 | 7.0 | 0.00 | 0.00 | 0.00 | 51 | 1008.6 |
| 20260510005137 | 84 | 129 | 2.6 | 7.8 | 0.00 | 0.00 | 0.00 | 50 | 1008.5 |
| 20260510004703 | 85 | 103 | 4.3 | 7.8 | 0.00 | 0.00 | 0.00 | 50 | 1008.4 |
| 20260510004127 | 85 | 120 | 3.5 | 7.0 | 0.00 | 0.00 | 0.00 | 53 | 1008.3 |
| 20260510003700 | 85 | 128 | 1.7 | 6.1 | 0.00 | 0.00 | 0.00 | 52 | 1008.2 |
| 20260510003227 | 85 | 128 | 2.6 | 6.1 | 0.00 | 0.00 | 0.00 | 52 | 1008.2 |
| 20260510002642 | 86 | 125 | 2.6 | 5.2 | 0.00 | 0.00 | 0.00 | 52 | 1008.2 |
| 20260510002207 | 86 | 89 | 2.6 | 5.2 | 0.00 | 0.00 | 0.00 | 51 | 1008.1 |
| 20260510001640 | 86 | 123 | 3.5 | 6.1 | 0.00 | 0.00 | 0.00 | 50 | 1008.0 |
| 20260510001147 | 86 | 133 | 1.7 | 5.2 | 0.00 | 0.00 | 0.00 | 51 | 1008.1 |
| 20260510000652 | 86 | 134 | 2.6 | 6.1 | 0.00 | 0.00 | 0.00 | 51 | 1008.0 |
| 20260510000145 | 86 | 134 | 2.6 | 7.8 | 0.00 | 0.00 | 0.00 | 50 | 1007.9 |
| 20260509235650 | 86 | 112 | 4.3 | 7.8 | 0.00 | 0.00 | 0.00 | 50 | 1007.9 |
| 20260509235201 | 86 | 124 | 5.2 | 7.8 | 0.00 | 0.00 | 0.00 | 50 | 1007.9 |
| 20260509234627 | 86 | 125 | 4.3 | 9.6 | 0.00 | 0.00 | 0.00 | 52 | 1007.9 |
| 20260509234154 | 86 | 128 | 5.2 | 10.4 | 0.00 | 0.00 | 0.00 | 52 | 1007.9 |
| 20260509233703 | 86 | 157 | 5.2 | 11.3 | 0.00 | 0.00 | 0.00 | 52 | 1007.9 |
| 20260509233131 | 87 | 135 | 6.1 | 8.7 | 0.00 | 0.00 | 0.00 | 51 | 1007.9 |
| 20260509232706 | 87 | 159 | 3.5 | 11.3 | 0.00 | 0.00 | 0.00 | 51 | 1007.8 |
| 20260509232131 | 87 | 143 | 7.0 | 11.3 | 0.00 | 0.00 | 0.00 | 49 | 1007.9 |
| 20260509231703 | 87 | 97 | 3.5 | 9.6 | 0.00 | 0.00 | 0.00 | 50 | 1007.7 |
| 20260509231208 | 87 | 111 | 4.3 | 9.6 | 0.00 | 0.00 | 0.00 | 50 | 1007.7 |
| 20260509230640 | 87 | 92 | 4.3 | 10.4 | 0.00 | 0.00 | 0.00 | 50 | 1007.8 |
| 20260509230203 | 88 | 95 | 6.1 | 10.4 | 0.00 | 0.00 | 0.00 | 50 | 1007.7 |
| 20260509225633 | 88 | 136 | 6.1 | 11.3 | 0.00 | 0.00 | 0.00 | 48 | 1007.7 |
| 20260509225159 | 89 | 98 | 7.8 | 11.3 | 0.00 | 0.00 | 0.00 | 46 | 1007.7 |
| 20260509224632 | 92 | 80 | 7.0 | 10.4 | 0.00 | 0.00 | 0.00 | 41 | 1007.8 |
| 20260509224154 | 92 | 262 | 0.9 | 6.1 | 0.00 | 0.00 | 0.00 | 38 | 1007.7 |
| 20260509223622 | 92 | 214 | 2.6 | 6.1 | 0.00 | 0.00 | 0.00 | 43 | 1007.6 |
| 20260509223156 | 92 | 186 | 3.5 | 7.0 | 0.00 | 0.00 | 0.00 | 39 | 1007.6 |
| 20260509222722 | 92 | 177 | 3.5 | 7.0 | 0.00 | 0.00 | 0.00 | 37 | 1007.6 |
| 20260509222134 | 92 | 204 | 1.7 | 5.2 | 0.00 | 0.00 | 0.00 | 37 | 1007.6 |
| 20260509221658 | 92 | 220 | 1.7 | 5.2 | 0.00 | 0.00 | 0.00 | 39 | 1007.6 |
| 20260509221201 | 91 | 242 | 2.6 | 7.0 | 0.00 | 0.00 | 0.00 | 42 | 1007.7 |
| 20260509220625 | 91 | 219 | 3.5 | 7.8 | 0.00 | 0.00 | 0.00 | 40 | 1007.7 |
| 20260509220157 | 91 | 205 | 4.3 | 7.8 | 0.00 | 0.00 | 0.00 | 41 | 1007.7 |
| 20260509215701 | 91 | 265 | 0.9 | 5.2 | 0.00 | 0.00 | 0.00 | 40 | 1007.8 |
| 20260509215133 | 91 | 117 | 2.6 | 4.3 | 0.00 | 0.00 | 0.00 | 39 | 1007.8 |
| 20260509214700 | 91 | 229 | 1.7 | 4.3 | 0.00 | 0.00 | 0.00 | 42 | 1007.8 |
| 20260509214136 | 90 | 276 | 0.9 | 3.5 | 0.00 | 0.00 | 0.00 | 43 | 1007.9 |
| 20260509213701 | 90 | 267 | 1.7 | 4.3 | 0.00 | 0.00 | 0.00 | 43 | 1007.9 |
| 20260509213126 | 90 | 242 | 2.6 | 7.0 | 0.00 | 0.00 | 0.00 | 43 | 1007.9 |
| 20260509212659 | 90 | 279 | 1.7 | 7.0 | 0.00 | 0.00 | 0.00 | 43 | 1008.0 |
| 20260509212125 | 90 | 217 | 3.5 | 7.0 | 0.00 | 0.00 | 0.00 | 44 | 1007.9 |
| 20260509211637 | 90 | 196 | 3.5 | 6.1 | 0.00 | 0.00 | 0.00 | 42 | 1007.9 |
| 20260509211203 | 90 | 166 | 1.7 | 4.3 | 0.00 | 0.00 | 0.00 | 44 | 1007.9 |
| 20260509210615 | 90 | 169 | 0.9 | 2.6 | 0.00 | 0.00 | 0.00 | 42 | 1008.0 |
| 20260509210140 | 90 | 157 | 0.9 | 6.1 | 0.00 | 0.00 | 0.00 | 40 | 1008.1 |
| 20260509205616 | 90 | 245 | 0.9 | 6.1 | 0.00 | 0.00 | 0.00 | 40 | 1008.2 |
| 20260509205141 | 90 | 285 | 1.7 | 5.2 | 0.00 | 0.00 | 0.00 | 42 | 1008.3 |
| 20260509204613 | 91 | 169 | 3.5 | 6.1 | 0.00 | 0.00 | 0.00 | 42 | 1008.4 |
| 20260509204116 | 90 | 238 | 3.5 | 6.1 | 0.00 | 0.00 | 0.00 | 43 | 1008.5 |
| 20260509203650 | 90 | 188 | 2.6 | 6.1 | 0.00 | 0.00 | 0.00 | 46 | 1008.5 |
| 20260509203115 | 90 | 19 | 0.9 | 6.1 | 0.00 | 0.00 | 0.00 | 45 | 1008.5 |
| 20260509202640 | 90 | 274 | 3.5 | 6.1 | 0.00 | 0.00 | 0.00 | 42 | 1008.7 |
| 20260509202215 | 90 | 253 | 0.9 | 7.0 | 0.00 | 0.00 | 0.00 | 44 | 1008.7 |
| 20260509201619 | 90 | 201 | 3.5 | 7.0 | 0.00 | 0.00 | 0.00 | 47 | 1008.8 |
| 20260509201151 | 90 | 169 | 0.9 | 6.1 | 0.00 | 0.00 | 0.00 | 46 | 1008.9 |
| 20260509200614 | 90 | 248 | 3.5 | 6.1 | 0.00 | 0.00 | 0.00 | 45 | 1008.9 |
| 20260509200147 | 89 | 175 | 0.0 | 7.0 | 0.00 | 0.00 | 0.00 | 47 | 1008.9 |
| 20260509195712 | 89 | 150 | 4.3 | 7.0 | 0.00 | 0.00 | 0.00 | 47 | 1009.0 |
| 20260509195223 | 89 | 199 | 3.5 | 7.0 | 0.00 | 0.00 | 0.00 | 46 | 1009.0 |
| 20260509194728 | 89 | 165 | 4.3 | 7.0 | 0.00 | 0.00 | 0.00 | 48 | 1009.1 |
| 20260509194144 | 89 | 169 | 3.5 | 6.1 | 0.00 | 0.00 | 0.00 | 49 | 1009.3 |
| 20260509193710 | 88 | 160 | 2.6 | 6.1 | 0.00 | 0.00 | 0.00 | 51 | 1009.4 |
| 20260509193200 | 88 | 201 | 0.9 | 6.1 | 0.00 | 0.00 | 0.00 | 51 | 1009.6 |
| 20260509192727 | 87 | 222 | 3.5 | 6.1 | 0.00 | 0.00 | 0.00 | 51 | 1009.7 |
| 20260509192132 | 87 | 269 | 0.9 | 3.5 | 0.00 | 0.00 | 0.00 | 53 | 1009.8 |
| 20260509191137 | 86 | 269 | 1.7 | 5.2 | 0.00 | 0.00 | 0.00 | 53 | 1010.0 |
| 20260509190711 | 86 | 254 | 2.6 | 5.2 | 0.00 | 0.00 | 0.00 | 52 | 1010.1 |
| 20260509190116 | 86 | 28 | 1.7 | 5.2 | 0.00 | 0.00 | 0.00 | 52 | 1010.2 |
| 20260509185650 | 87 | 355 | 3.5 | 5.2 | 0.00 | 0.00 | 0.00 | 52 | 1010.2 |
| 20260509185116 | 87 | 360 | 0.9 | 7.0 | 0.00 | 0.00 | 0.00 | 53 | 1010.2 |
| 20260509184141 | 86 | 169 | 3.5 | 8.7 | 0.00 | 0.00 | 0.00 | 57 | 1010.2 |
| 20260509183707 | 86 | 223 | 2.6 | 8.7 | 0.00 | 0.00 | 0.00 | 55 | 1010.2 |
| 20260509183138 | 85 | 263 | 2.6 | 6.1 | 0.00 | 0.00 | 0.00 | 55 | 1010.2 |
| 20260509182706 | 85 | 246 | 1.7 | 5.2 | 0.00 | 0.00 | 0.00 | 56 | 1010.3 |
| 20260509182136 | 85 | 184 | 1.7 | 5.2 | 0.00 | 0.00 | 0.00 | 57 | 1010.3 |
| 20260509181702 | 84 | 149 | 0.0 | 6.1 | 0.00 | 0.00 | 0.00 | 58 | 1010.5 |
| 20260509181134 | 84 | 272 | 3.5 | 6.1 | 0.00 | 0.00 | 0.00 | 59 | 1010.6 |
| 20260509180700 | 84 | 280 | 1.7 | 4.3 | 0.00 | 0.00 | 0.00 | 59 | 1010.7 |
| 20260509180116 | 84 | 229 | 0.9 | 7.0 | 0.00 | 0.00 | 0.00 | 59 | 1010.7 |
| 20260509175642 | 84 | 242 | 2.6 | 7.0 | 0.00 | 0.00 | 0.00 | 59 | 1010.7 |
| 20260509175154 | 84 | 360 | 1.7 | 4.3 | 0.00 | 0.00 | 0.00 | 59 | 1010.7 |
| 20260509174658 | 84 | 257 | 0.9 | 4.3 | 0.00 | 0.00 | 0.00 | 64 | 1010.8 |
| 20260509174123 | 83 | 294 | 1.7 | 4.3 | 0.00 | 0.00 | 0.00 | 61 | 1010.8 |
| 20260509173658 | 83 | 259 | 0.9 | 3.5 | 0.00 | 0.00 | 0.00 | 66 | 1011.0 |
| 20260509173122 | 82 | 90 | 1.7 | 3.5 | 0.00 | 0.00 | 0.00 | 65 | 1011.1 |
| 20260509172654 | 81 | 107 | 0.0 | 3.5 | 0.00 | 0.00 | 0.00 | 67 | 1011.1 |
| 20260509172117 | 81 | 187 | 0.0 | 5.2 | 0.00 | 0.00 | 0.00 | 69 | 1011.2 |
| 20260509171651 | 80 | 91 | 2.6 | 5.2 | 0.00 | 0.00 | 0.00 | 69 | 1011.2 |
| 20260509171118 | 80 | 317 | 2.6 | 6.1 | 0.00 | 0.00 | 0.00 | 70 | 1011.1 |
| 20260509170651 | 80 | 18 | 2.6 | 6.1 | 0.00 | 0.00 | 0.00 | 72 | 1011.2 |
| 20260509170116 | 80 | 261 | 0.9 | 5.2 | 0.00 | 0.00 | 0.00 | 72 | 1011.1 |
| 20260509165641 | 79 | 334 | 1.7 | 5.2 | 0.00 | 0.00 | 0.00 | 74 | 1011.2 |
| 20260509165115 | 79 | 185 | 0.9 | 4.3 | 0.00 | 0.00 | 0.00 | 75 | 1011.2 |
| 20260509164641 | 78 | 45 | 1.7 | 4.3 | 0.00 | 0.00 | 0.00 | 77 | 1011.3 |
| 20260509164114 | 78 | 338 | 0.9 | 4.3 | 0.00 | 0.00 | 0.00 | 79 | 1011.4 |
| 20260509163639 | 77 | 297 | 0.9 | 4.3 | 0.00 | 0.00 | 0.00 | 80 | 1011.4 |
| 20260509163117 | 77 | 325 | 0.9 | 4.3 | 0.00 | 0.00 | 0.00 | 82 | 1011.4 |
| 20260509162622 | 77 | 271 | 0.9 | 4.3 | 0.00 | 0.00 | 0.00 | 83 | 1011.5 |
| 20260509162156 | 76 | 348 | 2.6 | 4.3 | 0.00 | 0.00 | 0.00 | 84 | 1011.7 |
| 20260509161721 | 76 | 271 | 1.7 | 4.3 | 0.00 | 0.00 | 0.00 | 86 | 1011.7 |
| 20260509161129 | 75 | 355 | 0.9 | 4.3 | 0.00 | 0.00 | 0.00 | 87 | 1011.7 |
| 20260509160654 | 75 | 5 | 2.6 | 4.3 | 0.00 | 0.00 | 0.00 | 88 | 1011.7 |
| 20260509160119 | 75 | 342 | 1.7 | 4.3 | 0.00 | 0.00 | 0.00 | 88 | 1011.8 |
| 20260509155653 | 75 | 13 | 0.9 | 5.2 | 0.00 | 0.00 | 0.00 | 89 | 1011.8 |
| 20260509155118 | 75 | 344 | 2.6 | 5.2 | 0.00 | 0.00 | 0.00 | 90 | 1011.8 |
| 20260509154652 | 75 | 320 | 2.6 | 4.3 | 0.00 | 0.00 | 0.00 | 91 | 1011.7 |
| 20260509154117 | 75 | 211 | 0.9 | 1.7 | 0.00 | 0.00 | 0.00 | 92 | 1011.6 |
| 20260509153651 | 75 | 195 | 0.0 | 4.3 | 0.00 | 0.00 | 0.00 | 92 | 1011.6 |
| 20260509153121 | 75 | 195 | 0.9 | 6.1 | 0.00 | 0.00 | 0.00 | 94 | 1011.6 |
| 20260509152654 | 74 | 141 | 0.9 | 6.1 | 0.00 | 0.00 | 0.00 | 94 | 1011.5 |
| 20260509152219 | 74 | 225 | 3.5 | 7.8 | 0.00 | 0.00 | 0.00 | 95 | 1011.6 |
| 20260509151622 | 74 | 170 | 3.5 | 8.7 | 0.00 | 0.00 | 0.00 | 95 | 1011.4 |
| 20260509151155 | 73 | 173 | 4.3 | 8.7 | 0.00 | 0.00 | 0.00 | 95 | 1011.3 |
| 20260509150617 | 73 | 143 | 6.1 | 8.7 | 0.00 | 0.00 | 0.00 | 95 | 1011.5 |
| 20260509150148 | 73 | 178 | 4.3 | 7.8 | 0.00 | 0.00 | 0.00 | 95 | 1011.7 |
| 20260509145613 | 73 | 167 | 4.3 | 7.8 | 0.00 | 0.00 | 0.00 | 95 | 1011.9 |
| 20260509145121 | 72 | 166 | 4.3 | 6.1 | 0.00 | 0.00 | 0.00 | 95 | 1011.8 |
| 20260509144647 | 73 | 161 | 0.9 | 4.3 | 0.00 | 0.00 | 0.00 | 95 | 1012.0 |
| 20260509144211 | 72 | 161 | 1.7 | 4.3 | 0.00 | 0.00 | 0.00 | 95 | 1012.1 |
| 20260509143627 | 73 | 193 | 0.9 | 4.3 | 0.00 | 0.00 | 0.00 | 96 | 1012.0 |
| 20260509143153 | 73 | 140 | 2.6 | 4.3 | 0.00 | 0.00 | 0.00 | 96 | 1011.9 |
| 20260509142705 | 72 | 67 | 0.9 | 5.2 | 0.00 | 0.00 | 0.00 | 96 | 1011.6 |
| 20260509142130 | 72 | 67 | 1.7 | 5.2 | 0.00 | 0.00 | 0.00 | 96 | 1011.8 |
| 20260509141705 | 72 | 53 | 3.5 | 5.2 | 0.00 | 0.00 | 0.00 | 96 | 1011.6 |
| 20260509141131 | 72 | 317 | 1.7 | 5.2 | 0.00 | 0.00 | 0.00 | 96 | 1011.4 |
| 20260509140705 | 72 | 336 | 4.3 | 5.2 | 0.00 | 0.00 | 0.00 | 96 | 1011.4 |
| 20260509140229 | 72 | 29 | 1.7 | 4.3 | 0.00 | 0.00 | 0.00 | 96 | 1011.3 |
| 20260509135639 | 72 | 337 | 2.6 | 4.3 | 0.00 | 0.00 | 0.00 | 96 | 1011.2 |
| 20260509135204 | 72 | 24 | 1.7 | 4.3 | 0.00 | 0.00 | 0.00 | 96 | 1011.1 |
| 20260509134633 | 72 | 5 | 2.6 | 4.3 | 0.00 | 0.00 | 0.00 | 96 | 1011.1 |
| 20260509134204 | 72 | 347 | 0.9 | 3.5 | 0.00 | 0.00 | 0.00 | 96 | 1011.2 |
| 20260509133631 | 72 | 347 | 1.7 | 2.6 | 0.00 | 0.00 | 0.00 | 96 | 1011.3 |
| 20260509133145 | 72 | 326 | 0.9 | 1.7 | 0.00 | 0.00 | 0.00 | 96 | 1011.3 |
| 20260509132710 | 72 | 326 | 0.9 | 1.7 | 0.00 | 0.00 | 0.00 | 96 | 1011.2 |
| 20260509132113 | 72 | 326 | 0.9 | 1.7 | 0.00 | 0.00 | 0.00 | 96 | 1011.2 |
| 20260509131647 | 72 | 326 | 0.9 | 3.5 | 0.00 | 0.00 | 0.00 | 96 | 1011.3 |
| 20260509131152 | 72 | 326 | 0.9 | 3.5 | 0.00 | 0.00 | 0.00 | 96 | 1011.4 |
| 20260509130625 | 72 | 326 | 1.7 | 1.7 | 0.00 | 0.00 | 0.00 | 96 | 1011.4 |
| 20260509130151 | 72 | 326 | 0.9 | 4.3 | 0.00 | 0.00 | 0.00 | 96 | 1011.4 |
| 20260509125635 | 72 | 326 | 1.7 | 4.3 | 0.00 | 0.00 | 0.00 | 96 | 1011.3 |
| 20260509125208 | 72 | 331 | 0.9 | 2.6 | 0.00 | 0.00 | 0.00 | 96 | 1011.3 |
| 20260509124637 | 72 | 319 | 1.7 | 4.3 | 0.00 | 0.00 | 0.00 | 96 | 1011.2 |
| 20260509124208 | 72 | 306 | 2.6 | 4.3 | 0.00 | 0.00 | 0.00 | 96 | 1011.2 |
| 20260509123633 | 72 | 61 | 0.0 | 1.7 | 0.00 | 0.00 | 0.00 | 96 | 1011.1 |
| 20260509123205 | 72 | 60 | 0.0 | 3.5 | 0.00 | 0.00 | 0.00 | 96 | 1011.0 |
| 20260509122632 | 72 | 85 | 0.9 | 5.2 | 0.00 | 0.00 | 0.00 | 96 | 1011.0 |
| 20260509122137 | 72 | 42 | 0.9 | 5.2 | 0.00 | 0.00 | 0.00 | 96 | 1011.2 |
| 20260509121711 | 72 | 76 | 1.7 | 6.1 | 0.00 | 0.00 | 0.00 | 95 | 1011.2 |
| 20260509121113 | 72 | 24 | 3.5 | 6.1 | 0.00 | 0.00 | 0.00 | 95 | 1011.4 |
| 20260509120636 | 72 | 11 | 4.3 | 6.1 | 0.00 | 0.00 | 0.00 | 95 | 1011.3 |
| 20260509120206 | 72 | 44 | 2.6 | 5.2 | 0.00 | 0.00 | 0.00 | 95 | 1011.2 |
| 20260509115635 | 72 | 65 | 2.6 | 5.2 | 0.00 | 0.00 | 0.00 | 95 | 1011.1 |
| 20260509115205 | 72 | 342 | 0.9 | 4.3 | 0.00 | 0.00 | 0.00 | 95 | 1011.3 |
| 20260509114709 | 72 | 44 | 1.7 | 3.5 | 0.00 | 0.00 | 0.00 | 95 | 1011.2 |
| 20260509114141 | 72 | 48 | 0.0 | 5.2 | 0.00 | 0.00 | 0.00 | 95 | 1011.3 |
| 20260509113707 | 72 | 36 | 2.6 | 5.2 | 0.00 | 0.00 | 0.00 | 95 | 1011.3 |
| 20260509113140 | 72 | 10 | 0.9 | 4.3 | 0.00 | 0.00 | 0.00 | 95 | 1011.4 |
| 20260509112707 | 72 | 10 | 2.6 | 4.3 | 0.00 | 0.00 | 0.00 | 95 | 1011.5 |
| 20260509112131 | 72 | 40 | 1.7 | 5.2 | 0.00 | 0.00 | 0.00 | 95 | 1011.5 |
| 20260509111644 | 72 | 342 | 2.6 | 5.2 | 0.00 | 0.00 | 0.00 | 95 | 1011.5 |
| 20260509111207 | 72 | 9 | 2.6 | 5.2 | 0.00 | 0.00 | 0.00 | 95 | 1011.5 |
| 20260509110646 | 72 | 17 | 2.6 | 4.3 | 0.00 | 0.00 | 0.00 | 95 | 1011.3 |
| 20260509110149 | 72 | 17 | 1.7 | 3.5 | 0.00 | 0.00 | 0.00 | 95 | 1011.2 |
| 20260509105715 | 72 | 40 | 0.9 | 1.7 | 0.00 | 0.00 | 0.00 | 95 | 1011.0 |
| 20260509105227 | 72 | 82 | 0.9 | 3.5 | 0.00 | 0.00 | 0.00 | 95 | 1010.8 |
| 20260509104730 | 72 | 82 | 0.9 | 6.1 | 0.00 | 0.00 | 0.00 | 95 | 1010.8 |
| 20260509104142 | 72 | 87 | 2.6 | 6.1 | 0.00 | 0.00 | 0.00 | 95 | 1010.7 |
| 20260509103709 | 72 | 100 | 1.7 | 4.3 | 0.00 | 0.00 | 0.00 | 95 | 1010.7 |
| 20260509103140 | 72 | 84 | 1.7 | 3.5 | 0.00 | 0.00 | 0.00 | 95 | 1010.9 |
| 20260509102704 | 72 | 66 | 0.0 | 1.7 | 0.00 | 0.00 | 0.00 | 95 | 1011.0 |
| 20260509102129 | 72 | 94 | 0.0 | 0.0 | 0.00 | 0.00 | 0.00 | 95 | 1011.0 |
| 20260509101702 | 72 | 94 | 0.0 | 1.7 | 0.00 | 0.00 | 0.00 | 95 | 1011.0 |
| 20260509101131 | 72 | 94 | 0.0 | 1.7 | 0.00 | 0.00 | 0.00 | 95 | 1010.9 |
| 20260509100705 | 72 | 75 | 0.0 | 1.7 | 0.00 | 0.00 | 0.00 | 95 | 1010.8 |
| 20260509100228 | 72 | 75 | 0.0 | 3.5 | 0.00 | 0.00 | 0.00 | 95 | 1010.6 |
| 20260509095617 | 72 | 75 | 0.9 | 2.6 | 0.00 | 0.00 | 0.00 | 95 | 1010.4 |
| 20260509095204 | 72 | 57 | 0.0 | 3.5 | 0.00 | 0.00 | 0.00 | 94 | 1010.3 |
| 20260509094629 | 72 | 57 | 0.9 | 3.5 | 0.00 | 0.00 | 0.00 | 94 | 1010.3 |
| 20260509094159 | 72 | 28 | 1.7 | 4.3 | 0.00 | 0.00 | 0.00 | 94 | 1010.4 |
| 20260509093626 | 72 | 59 | 2.6 | 4.3 | 0.00 | 0.00 | 0.00 | 94 | 1010.3 |
| 20260509093138 | 72 | 40 | 2.6 | 4.3 | 0.00 | 0.00 | 0.00 | 94 | 1010.1 |
| 20260509092704 | 72 | 51 | 2.6 | 4.3 | 0.00 | 0.00 | 0.00 | 94 | 1010.1 |
| 20260509092129 | 72 | 61 | 1.7 | 3.5 | 0.00 | 0.00 | 0.00 | 94 | 1010.2 |
| 20260509091704 | 72 | 83 | 0.9 | 3.5 | 0.00 | 0.00 | 0.00 | 94 | 1010.2 |
| 20260509091128 | 72 | 114 | 0.0 | 0.0 | 0.00 | 0.00 | 0.00 | 94 | 1010.1 |
| 20260509090702 | 72 | 114 | 0.0 | 0.0 | 0.00 | 0.00 | 0.00 | 94 | 1010.0 |
| 20260509090132 | 72 | 114 | 0.0 | 0.0 | 0.00 | 0.00 | 0.00 | 94 | 1010.1 |
| 20260509085138 | 72 | 114 | 0.0 | 0.0 | 0.00 | 0.00 | 0.00 | 93 | 1010.0 |
| 20260509084703 | 72 | 114 | 0.0 | 0.0 | 0.00 | 0.00 | 0.00 | 93 | 1010.1 |
| 20260509084135 | 72 | 114 | 0.0 | 0.0 | 0.00 | 0.00 | 0.00 | 93 | 1010.1 |
| 20260509083701 | 72 | 114 | 0.0 | 0.0 | 0.00 | 0.00 | 0.00 | 93 | 1010.1 |
| 20260509083134 | 72 | 114 | 0.0 | 1.7 | 0.00 | 0.00 | 0.00 | 93 | 1010.1 |
| 20260509082700 | 72 | 114 | 0.0 | 1.7 | 0.00 | 0.00 | 0.00 | 93 | 1010.2 |
| 20260509082136 | 72 | 114 | 0.0 | 0.0 | 0.00 | 0.00 | 0.00 | 93 | 1010.3 |
| 20260509081704 | 72 | 114 | 0.0 | 1.7 | 0.00 | 0.00 | 0.00 | 93 | 1010.4 |
| 20260509081133 | 72 | 114 | 0.9 | 1.7 | 0.00 | 0.00 | 0.00 | 93 | 1010.3 |
| 20260509080638 | 72 | 88 | 0.9 | 3.5 | 0.00 | 0.00 | 0.00 | 93 | 1010.4 |
| 20260509080153 | 72 | 88 | 0.9 | 3.5 | 0.00 | 0.00 | 0.00 | 93 | 1010.3 |
| 20260509075616 | 72 | 111 | 0.9 | 3.5 | 0.00 | 0.00 | 0.00 | 92 | 1010.1 |
| 20260509075141 | 72 | 111 | 0.9 | 4.3 | 0.00 | 0.00 | 0.00 | 92 | 1010.0 |
| 20260509074614 | 72 | 123 | 1.7 | 4.3 | 0.00 | 0.00 | 0.00 | 92 | 1010.0 |
| 20260509074141 | 72 | 135 | 2.6 | 4.3 | 0.00 | 0.00 | 0.00 | 92 | 1010.1 |
| 20260509073616 | 72 | 140 | 1.7 | 3.5 | 0.00 | 0.00 | 0.00 | 92 | 1010.2 |
| 20260509073142 | 72 | 140 | 0.9 | 2.6 | 0.00 | 0.00 | 0.00 | 92 | 1010.1 |
| 20260509072615 | 72 | 141 | 0.9 | 3.5 | 0.00 | 0.00 | 0.00 | 92 | 1010.1 |
| 20260509072119 | 72 | 141 | 0.9 | 3.5 | 0.00 | 0.00 | 0.00 | 92 | 1010.1 |